Weather History for KL35 - November, 2012

Change the Weather History Date:

Thursday, November 29, 2012

  Actual Average (KBUO) Record (KBUO)
Temperature  
Mean Temperature 42 °F -  
Max Temperature 46 °F 62 °F 71 °F (1999)
Min Temperature 39 °F 43 °F 42 °F (1996)
Degree Days  
Heating Degree Days 22    
Moisture  
Dew Point 37 °F    
Average Humidity 81    
Maximum Humidity 87    
Minimum Humidity 66    
Precipitation  
Precipitation 0.00 in - - ()
Sea Level Pressure  
Sea Level Pressure 30.24 in    
Wind  
Wind Speed 12 mph (WSW)    
Max Wind Speed 17 mph    
Max Gust Speed 30 mph    
Visibility 7 miles    
Events Rain    
Averages and records for this station are not official NWS values.
T = Trace of Precipitation, MM = Missing Value Source: NWS Daily Summary

Daily Weather History Graph

Daily Weather History Graph

Search for Another Location

Airport or City:

Trip Planner

Search our weather history database for the weather conditions in past years. The results will help you decide how hot, cold, wet, or windy it might be!

Date:

Astronomy

Nov. 29, 2012 Rise Set
Actual Time 6:34 AM PST 4:37 PM PST
Civil Twilight 6:06 AM PST 5:05 PM PST
Nautical Twilight 5:35 AM PST 5:36 PM PST
Astronomical Twilight 5:05 AM PST 6:06 PM PST
Moon 5:44 PM PST 7:24 AM PST
Length of Visible Light 10h 58m
Length of Day
10h 03m
Full, 99% of the Moon is Illuminated
Nov 29
Full
Dec 6
Last Quarter
Dec 13
New
Dec 19
First Quarter
Dec 28
Full

Hourly Weather History & Observations

Time (PST) Temp. Windchill Dew Point Humidity Pressure Visibility Wind Dir Wind Speed Gust Speed Precip Events Conditions
12:15 AM 41.0 °F 34.3 °F 37.4 °F 87% 30.24 in 10.0 mi WSW 11.5 mph 18.4 mph N/A   Overcast
12:35 AM 41.0 °F 34.7 °F 37.4 °F 87% 30.23 in 10.0 mi WSW 10.4 mph 20.7 mph N/A   Overcast
12:55 AM 41.0 °F 33.5 °F 35.6 °F 81% 30.23 in 7.0 mi WSW 13.8 mph 19.6 mph N/A   Overcast
1:15 AM 41.0 °F 32.5 °F 37.4 °F 87% 30.23 in 7.0 mi West 17.3 mph 21.9 mph N/A   Light Drizzle
1:35 AM 41.0 °F 34.7 °F 37.4 °F 87% 30.24 in 4.0 mi WSW 10.4 mph 20.7 mph N/A Rain Light Rain
1:55 AM 41.0 °F 34.3 °F 35.6 °F 81% 30.24 in 10.0 mi WSW 11.5 mph 17.3 mph N/A   Overcast
2:15 AM 41.0 °F 34.7 °F 35.6 °F 81% 30.24 in 10.0 mi WSW 10.4 mph 18.4 mph N/A   Overcast
2:35 AM 41.0 °F 33.9 °F 35.6 °F 81% 30.23 in 10.0 mi WSW 12.7 mph 19.6 mph N/A   Overcast
2:55 AM 41.0 °F 35.2 °F 37.4 °F 87% 30.23 in 5.0 mi WSW 9.2 mph 17.3 mph N/A   Overcast
3:15 AM 41.0 °F 34.7 °F 37.4 °F 87% 30.23 in 4.0 mi WSW 10.4 mph 19.6 mph N/A Rain Rain
3:35 AM 41.0 °F 35.2 °F 37.4 °F 87% 30.22 in 7.0 mi WSW 9.2 mph 17.3 mph N/A   Mostly Cloudy
3:55 AM 41.0 °F 34.7 °F 37.4 °F 87% 30.21 in 5.0 mi WSW 10.4 mph 20.7 mph N/A   Mostly Cloudy
4:15 AM 41.0 °F 33.9 °F 37.4 °F 87% 30.20 in 2.5 mi WSW 12.7 mph 17.3 mph N/A Rain Light Rain
4:35 AM 42.8 °F 35.4 °F 39.2 °F 87% 30.21 in 2.5 mi SW 15.0 mph 21.9 mph N/A Rain Rain
4:55 AM 41.0 °F 33.5 °F 37.4 °F 87% 30.21 in 2.5 mi SW 13.8 mph 25.3 mph N/A Rain Rain
5:15 AM 41.0 °F 33.9 °F 37.4 °F 87% 30.21 in 4.0 mi WSW 12.7 mph 21.9 mph N/A Rain Light Rain
5:35 AM 42.8 °F 36.2 °F 39.2 °F 87% 30.22 in 4.0 mi WSW 12.7 mph 18.4 mph N/A Rain Light Rain
5:55 AM 41.0 °F 33.9 °F 37.4 °F 87% 30.23 in 5.0 mi WSW 12.7 mph 23.0 mph N/A   Overcast
6:15 AM 41.0 °F 34.7 °F 37.4 °F 87% 30.23 in 3.0 mi WSW 10.4 mph 19.6 mph N/A Rain Light Rain
6:35 AM 41.0 °F 34.7 °F 37.4 °F 87% 30.23 in 2.0 mi WSW 10.4 mph 18.4 mph N/A Rain Light Rain
6:55 AM 41.0 °F 34.7 °F 37.4 °F 87% 30.23 in 2.0 mi WSW 10.4 mph 16.1 mph N/A Rain Light Rain
7:15 AM 42.8 °F 37.5 °F 39.2 °F 87% 30.24 in 1.8 mi WSW 9.2 mph 20.7 mph N/A Rain Light Rain
7:35 AM 42.8 °F 36.6 °F 39.2 °F 87% 30.25 in 1.8 mi WSW 11.5 mph 19.6 mph N/A Rain Light Rain
7:55 AM 41.0 °F 34.3 °F 37.4 °F 87% 30.26 in 2.0 mi SW 11.5 mph 20.7 mph N/A   Light Drizzle
8:15 AM 41.0 °F 34.3 °F 37.4 °F 87% 30.26 in 2.5 mi SW 11.5 mph 18.4 mph N/A   Overcast
8:35 AM 41.0 °F 34.7 °F 37.4 °F 87% 30.27 in 2.5 mi WSW 10.4 mph 18.4 mph N/A   Overcast
8:55 AM 41.0 °F 34.7 °F 37.4 °F 87% 30.27 in 2.5 mi WSW 10.4 mph 21.9 mph N/A   Overcast
9:15 AM 42.8 °F 36.2 °F 37.4 °F 81% 30.27 in 3.0 mi WSW 12.7 mph 18.4 mph N/A   Overcast
9:35 AM 42.8 °F 35.4 °F 37.4 °F 81% 30.27 in 2.0 mi SW 15.0 mph 23.0 mph N/A   Overcast
9:55 AM 42.8 °F 36.2 °F 37.4 °F 81% 30.28 in 7.0 mi WSW 12.7 mph 29.9 mph N/A   Overcast
10:15 AM 42.8 °F 36.2 °F 35.6 °F 76% 30.28 in 10.0 mi WSW 12.7 mph 25.3 mph N/A   Mostly Cloudy
10:35 AM 42.8 °F 36.6 °F 35.6 °F 76% 30.28 in 10.0 mi SW 11.5 mph 20.7 mph N/A   Mostly Cloudy
10:55 AM 42.8 °F 36.6 °F 35.6 °F 76% 30.28 in 10.0 mi SW 11.5 mph 19.6 mph N/A   Mostly Cloudy
11:15 AM 42.8 °F 37.0 °F 35.6 °F 76% 30.27 in 10.0 mi SW 10.4 mph 19.6 mph N/A   Mostly Cloudy
11:35 AM 42.8 °F 38.0 °F 37.4 °F 81% 30.26 in 5.0 mi WSW 8.1 mph 23.0 mph N/A   Haze
11:55 AM 42.8 °F 36.6 °F 35.6 °F 76% 30.26 in 10.0 mi WSW 11.5 mph 23.0 mph N/A   Mostly Cloudy
12:15 PM 42.8 °F 36.6 °F 35.6 °F 76% 30.26 in 10.0 mi WSW 11.5 mph 19.6 mph N/A   Overcast
12:35 PM 44.6 °F 37.8 °F 35.6 °F 71% 30.25 in 10.0 mi West 15.0 mph 21.9 mph N/A   Mostly Cloudy
12:55 PM 46.4 °F 40.4 °F 35.6 °F 66% 30.24 in 10.0 mi West 13.8 mph 21.9 mph N/A   Overcast
1:15 PM 46.4 °F 39.8 °F 35.6 °F 66% 30.24 in 10.0 mi West 16.1 mph 28.8 mph N/A   Mostly Cloudy
1:35 PM 44.6 °F 37.2 °F 35.6 °F 71% 30.23 in 10.0 mi WSW 17.3 mph 25.3 mph N/A   Mostly Cloudy
1:55 PM 44.6 °F 38.4 °F 35.6 °F 71% 30.23 in 10.0 mi WSW 12.7 mph 19.6 mph N/A   Scattered Clouds
2:15 PM 44.6 °F 37.8 °F 35.6 °F 71% 30.23 in 10.0 mi West 15.0 mph 20.7 mph N/A   Scattered Clouds
2:35 PM 44.6 °F 38.4 °F 35.6 °F 71% 30.23 in 10.0 mi WSW 12.7 mph 20.7 mph N/A   Mostly Cloudy
2:55 PM 44.6 °F 38.8 °F 37.4 °F 76% 30.23 in 10.0 mi West 11.5 mph 19.6 mph N/A   Mostly Cloudy
3:15 PM 42.8 °F 35.8 °F 37.4 °F 81% 30.23 in 5.0 mi West 13.8 mph 19.6 mph N/A   Haze
3:35 PM 42.8 °F 37.5 °F 37.4 °F 81% 30.23 in 10.0 mi WSW 9.2 mph 20.7 mph N/A   Mostly Cloudy
3:55 PM 42.8 °F 36.6 °F 37.4 °F 81% 30.23 in 4.0 mi WSW 11.5 mph 18.4 mph N/A   Haze
4:15 PM 42.8 °F 36.6 °F 37.4 °F 81% 30.23 in 5.0 mi SW 11.5 mph 19.6 mph N/A   Light Drizzle
4:35 PM 42.8 °F 37.5 °F 39.2 °F 87% 30.23 in 3.0 mi SW 9.2 mph - N/A   Overcast
4:55 PM 42.8 °F 36.2 °F 39.2 °F 87% 30.23 in 3.0 mi WSW 12.7 mph 21.9 mph N/A   Overcast
5:15 PM 42.8 °F 37.0 °F 37.4 °F 81% 30.23 in 10.0 mi WSW 10.4 mph 16.1 mph N/A   Overcast
5:35 PM 41.0 °F 35.2 °F 35.6 °F 81% 30.23 in 10.0 mi SW 9.2 mph 17.3 mph N/A   Scattered Clouds
5:55 PM 41.0 °F 36.4 °F 33.8 °F 76% 30.23 in 10.0 mi WSW 6.9 mph - N/A   Clear
6:15 PM 41.0 °F 33.9 °F 33.8 °F 76% 30.24 in 10.0 mi West 12.7 mph - N/A   Clear
6:35 PM 39.2 °F 33.0 °F 33.8 °F 81% 30.25 in 10.0 mi WSW 9.2 mph 16.1 mph N/A   Clear
6:55 PM 39.2 °F 33.6 °F 33.8 °F 81% 30.25 in 10.0 mi WSW 8.1 mph - N/A   Clear
7:15 PM 39.2 °F 33.6 °F 33.8 °F 81% 30.24 in 10.0 mi WSW 8.1 mph - N/A   Clear
7:35 PM 39.2 °F 33.6 °F 33.8 °F 81% 30.25 in 10.0 mi West 8.1 mph 17.3 mph N/A   Clear
7:55 PM 39.2 °F 31.6 °F 33.8 °F 81% 30.25 in 10.0 mi West 12.7 mph - N/A   Clear
8:15 PM 39.2 °F 33.0 °F 33.8 °F 81% 30.25 in 10.0 mi WSW 9.2 mph 16.1 mph N/A   Clear
8:35 PM 39.2 °F 33.0 °F 33.8 °F 81% 30.25 in 10.0 mi West 9.2 mph - N/A   Clear
8:55 PM 41.0 °F 35.2 °F 33.8 °F 76% 30.25 in 10.0 mi WSW 9.2 mph 16.1 mph N/A   Clear
9:15 PM 41.0 °F 35.8 °F 33.8 °F 76% 30.25 in 10.0 mi WSW 8.1 mph - N/A   Clear
9:35 PM 41.0 °F 36.4 °F 35.6 °F 81% 30.25 in 10.0 mi West 6.9 mph - N/A   Clear
9:55 PM 41.0 °F 35.8 °F 35.6 °F 81% 30.25 in 10.0 mi WSW 8.1 mph - N/A   Clear
10:15 PM 42.8 °F 37.0 °F 37.4 °F 81% 30.24 in 10.0 mi WSW 10.4 mph 18.4 mph N/A   Mostly Cloudy
10:35 PM 42.8 °F 36.2 °F 37.4 °F 81% 30.24 in 10.0 mi WSW 12.7 mph 18.4 mph N/A   Overcast
10:55 PM 42.8 °F 35.8 °F 37.4 °F 81% 30.24 in 10.0 mi West 13.8 mph 18.4 mph N/A   Overcast
11:15 PM 42.8 °F 37.5 °F 37.4 °F 81% 30.25 in 10.0 mi WSW 9.2 mph - N/A   Overcast
11:35 PM 42.8 °F 38.6 °F 37.4 °F 81% 30.25 in 10.0 mi WSW 6.9 mph - N/A   Overcast
11:55 PM 42.8 °F 37.5 °F 39.2 °F 87% 30.23 in 10.0 mi West 9.2 mph - N/A   Overcast